Niagara Falls, NY

3:14 PM EDT on July 25, 2016 (GMT -0400)
Niagara Falls International

Weather History for KIAG - May, 2013

Change the Weather History Date:

Sunday, May 12, 2013

  Actual Average Record
Temperature  
Mean Temperature 44 °F -  
Max Temperature 50 °F 64 °F 85 °F (1992)
Min Temperature 37 °F 43 °F 36 °F (1990)
Degree Days  
Heating Degree Days 22    
Moisture  
Dew Point 33 °F    
Average Humidity 71    
Maximum Humidity 87    
Minimum Humidity 47    
Precipitation  
Precipitation 0.10 in - - ()
Sea Level Pressure  
Sea Level Pressure 29.82 in    
Wind  
Wind Speed 17 mph (West)    
Max Wind Speed 26 mph    
Max Gust Speed 38 mph    
Visibility 9 miles    
Events Rain , Thunderstorm    
Averages and records for this station are not official NWS values.
T = Trace of Precipitation, MM = Missing Value Source: NWS Daily Summary

Daily Weather History Graph

Daily Weather History Graph

Search for Another Location

Airport or City:

Trip Planner

Search our weather history database for the weather conditions in past years. The results will help you decide how hot, cold, wet, or windy it might be!

Date:

Astronomy

May. 12, 2013 Rise Set
Actual Time 5:55 AM EDT 8:29 PM EDT
Civil Twilight 5:22 AM EDT 9:02 PM EDT
Nautical Twilight 4:42 AM EDT 9:42 PM EDT
Astronomical Twilight 3:56 AM EDT 10:29 PM EDT
Moon 7:48 AM EDT (5/12) 10:56 PM EDT (5/12)
Length of Visible Light 15h 39m
Length of Day
14h 34m
Waxing Crescent, 6% of the Moon is Illuminated
May 12
Waxing Crescent
May 18
First Quarter
May 25
Full
May 31
Last Quarter
Jun 8
New

Hourly Weather History & Observations

Time (EDT) Temp. Windchill Dew Point Humidity Pressure Visibility Wind Dir Wind Speed Gust Speed Precip Events Conditions
12:13 AM 48.2 °F - 44.6 °F 87% 29.69 in 7.0 mi SSW 11.5 mph - N/A   Overcast
12:53 AM 50.0 °F - 45.0 °F 83% 29.70 in 8.0 mi SSW 11.5 mph - 0.00 in   Overcast
1:31 AM 46.4 °F 38.3 °F 42.8 °F 87% 29.72 in 10.0 mi WNW 23.0 mph 35.7 mph 0.00 in Rain Light Rain
1:53 AM 44.1 °F 36.5 °F 39.9 °F 85% 29.74 in 9.0 mi WNW 17.3 mph 27.6 mph 0.00 in Rain Light Rain
2:42 AM 42.8 °F 35.8 °F 35.6 °F 76% 29.76 in 10.0 mi WNW 13.8 mph - 0.00 in Rain Light Rain
2:53 AM 42.1 °F 34.2 °F 37.0 °F 82% 29.78 in 10.0 mi West 16.1 mph - 0.00 in   Overcast
3:53 AM 39.0 °F 30.3 °F 32.0 °F 76% 29.80 in 10.0 mi West 16.1 mph - N/A   Scattered Clouds
4:53 AM 37.0 °F 28.1 °F 30.9 °F 79% 29.81 in 10.0 mi West 15.0 mph - N/A   Clear
5:53 AM 37.0 °F 28.9 °F 30.9 °F 79% 29.81 in 10.0 mi SW 12.7 mph - N/A   Clear
6:53 AM 37.9 °F 30.9 °F 32.0 °F 79% 29.81 in 10.0 mi SW 10.4 mph - N/A   Clear
7:00 AM 39.2 °F 32.0 °F 32.0 °F 75% 29.78 in 10.0 mi SW 11.5 mph - N/A   Partly Cloudy
7:53 AM 43.0 °F 35.7 °F 33.1 °F 68% 29.79 in 10.0 mi WSW 15.0 mph - N/A   Partly Cloudy
8:49 AM 44.6 °F 37.4 °F 33.8 °F 66% 29.75 in 10.0 mi SW 16.1 mph 29.9 mph 0.00 in Rain Light Rain
8:53 AM 44.1 °F 36.2 °F 33.1 °F 65% 29.78 in 10.0 mi WSW 18.4 mph 29.9 mph 0.00 in Rain Light Rain
9:17 AM 44.6 °F 35.7 °F 30.2 °F 57% 29.76 in 10.0 mi WSW 24.2 mph 33.4 mph 0.00 in   Mostly Cloudy
9:53 AM 45.0 °F 37.1 °F 30.9 °F 58% 29.78 in 10.0 mi West 19.6 mph 31.1 mph 0.00 in   Mostly Cloudy
10:53 AM 45.0 °F 36.2 °F 28.9 °F 53% 29.80 in 10.0 mi West 24.2 mph 32.2 mph N/A   Overcast
11:53 AM 46.0 °F 37.4 °F 27.0 °F 47% 29.80 in 10.0 mi WSW 25.3 mph 34.5 mph N/A   Mostly Cloudy
12:53 PM 46.0 °F 38.0 °F 28.0 °F 50% 29.80 in 10.0 mi WSW 21.9 mph 31.1 mph N/A   Mostly Cloudy
1:42 PM 46.4 °F 38.1 °F 30.2 °F 53% 29.78 in 10.0 mi SW 24.2 mph 32.2 mph 0.00 in Rain Light Rain
1:53 PM 46.0 °F 38.0 °F 30.0 °F 54% 29.81 in 10.0 mi WSW 21.9 mph 32.2 mph 0.00 in Rain Light Rain
2:53 PM 42.1 °F 34.2 °F 34.0 °F 73% 29.84 in 10.0 mi WNW 16.1 mph - 0.01 in Rain Light Rain
3:07 PM 39.2 °F 28.0 °F 33.8 °F 81% 29.82 in 5.0 mi West 26.5 mph 34.5 mph 0.00 in Rain Light Rain
3:19 PM 42.8 °F 34.0 °F 35.6 °F 76% 29.81 in 8.0 mi West 20.7 mph 27.6 mph 0.01 in Rain Light Rain
3:53 PM 43.0 °F 33.5 °F 34.0 °F 71% 29.85 in 8.0 mi West 24.2 mph 33.4 mph 0.01 in Rain Light Rain
4:43 PM 42.8 °F 35.8 °F 35.6 °F 76% 29.82 in 10.0 mi West 13.8 mph 24.2 mph 0.00 in   Mostly Cloudy
4:53 PM 43.0 °F 36.8 °F 37.0 °F 80% 29.85 in 10.0 mi West 11.5 mph - 0.00 in   Mostly Cloudy
5:01 PM 42.8 °F 36.6 °F 35.6 °F 76% 29.81 in 10.0 mi WNW 11.5 mph - 0.00 in Rain Light Rain
5:09 PM 42.8 °F 34.8 °F 35.6 °F 76% 29.84 in 2.0 mi West 17.3 mph 24.2 mph 0.02 in Rain Small Hail
5:11 PM 41.0 °F 30.5 °F 35.6 °F 81% 29.84 in 1.5 mi West 26.5 mph 33.4 mph 0.03 in Rain , Thunderstorm Light Thunderstorms and Rain
5:21 PM 37.4 °F 27.5 °F 33.8 °F 87% 29.84 in 4.0 mi West 18.4 mph 34.5 mph 0.07 in Rain , Thunderstorm Light Thunderstorms and Rain
5:32 PM 39.2 °F 29.8 °F 35.6 °F 87% 29.85 in 7.0 mi West 18.4 mph 27.6 mph 0.07 in   Overcast
5:44 PM 41.0 °F 33.5 °F 35.6 °F 81% 29.85 in 9.0 mi West 13.8 mph 27.6 mph 0.07 in   Mostly Cloudy
5:53 PM 41.0 °F 32.2 °F 34.0 °F 76% 29.88 in 9.0 mi West 18.4 mph 29.9 mph 0.07 in   Overcast
6:05 PM 42.8 °F 33.3 °F 33.8 °F 70% 29.85 in 10.0 mi West 24.2 mph 38.0 mph 0.00 in Rain Light Rain
6:45 PM 42.8 °F 34.3 °F 33.8 °F 70% 29.85 in 10.0 mi West 19.6 mph 27.6 mph 0.01 in   Overcast
6:53 PM 42.1 °F 34.2 °F 33.1 °F 70% 29.88 in 9.0 mi WSW 16.1 mph 27.6 mph 0.01 in   Mostly Cloudy
7:53 PM 41.0 °F 32.8 °F 28.0 °F 60% 29.91 in 10.0 mi West 16.1 mph - N/A   Mostly Cloudy
8:53 PM 39.9 °F 30.8 °F 28.0 °F 63% 29.93 in 10.0 mi West 18.4 mph 31.1 mph N/A   Mostly Cloudy
9:53 PM 39.0 °F 29.3 °F 27.0 °F 62% 29.95 in 10.0 mi West 19.6 mph 29.9 mph N/A   Mostly Cloudy
10:53 PM 39.0 °F 30.6 °F 27.0 °F 62% 29.97 in 10.0 mi West 15.0 mph 27.6 mph N/A   Mostly Cloudy
11:53 PM 37.9 °F 27.9 °F 27.0 °F 65% 29.98 in 10.0 mi West 19.6 mph 29.9 mph N/A   Overcast